Welcome to the New NWS' Forecast!
Most changes are behind the scenes, but click here for differences you might notice.

Regional Weather Roundup (RWR)

Issued by National Weather Service (NWS)

                            
306 
ASUS46 KSEW 160110
RWRWA 

WASHINGTON REGIONAL WEATHER ROUNDUP
NATIONAL WEATHER SERVICE SEATTLE WA
600 PM PDT SUN JUL 15 2018

NOTE:"FAIR" INDICATES FEW OR NO CLOUDS BELOW 12,000 FEET WITH NO 
SIGNIFICANT WEATHER AND/OR OBSTRUCTIONS TO VISIBILITY.

WAZ507-509-555>559-160200-
SEATTLE, TACOMA, EVERETT, AND VICINITY
  
CITY           SKY/WX    TMP DP  RH WIND       PRES   REMARKS
EVERETT        SUNNY     83  53  35 NW8       29.98S                  
BOEING FIELD   SUNNY     88  44  21 NW13      29.92F                  
RENTON         SUNNY     91  52  26 NW13      29.91F                  
SEATAC AIRPORT MOSUNNY   92  48  22 NW12      29.95F                  
JBLM-MCCHORD   SUNNY     91  54  28 NE9       29.94F                  
PUYALLUP       FAIR      91  52  25 CALM      29.95S                  
BREMERTON      SUNNY     90  47  22 NE13      29.95F                  
JBLM-FT LEWIS  SUNNY     91  56  29 N8        29.93F                  
TACOMA NARROWS SUNNY     85  50  29 NE9       29.94F                  
$$
 
WAZ001-503-506-510-514-515-160200-
NORTH INTERIOR
  
CITY           SKY/WX    TMP DP  RH WIND       PRES   REMARKS
BELLINGHAM     SUNNY     83  52  34 W3        29.96F                  
FRIDAY HARBOR  SUNNY     81  49  32 SE3       29.97F                  
EASTSOUND      SUNNY     73  54  49 NW6       29.97S                  
PORT ANGELES   SUNNY     78  49  35 NW3       30.00S                  
EDIZ HOOK      FAIR      63  51  65 W14       29.98S                  
PORT TOWNSEND  FAIR      86  45  23 VRB6G12   29.96F                  
NAS WHIDBEY    MOSUNNY   76  51  41 W5        30.00F                  
ARLINGTON      SUNNY     87  49  26 NW10      29.95F                  
BURLINGTON     SUNNY     82  50  32 W9        29.96S                  
$$
 
WAZ020-022-039-040-504-511-512-160200-
SOUTHWEST INTERIOR
  
CITY           SKY/WX    TMP DP  RH WIND       PRES   REMARKS
SHELTON        SUNNY     97  49  19 N7        29.90F HX  94           
OLYMPIA        SUNNY     92  49  22 NE8       29.93S                  
CHEHALIS       FAIR      93  54  26 NE6G12    29.92S HX  91           
KELSO          MOSUNNY   92  60  34 W13       29.90R HX  91           
VANCOUVER      MOSUNNY   98  49  18 NW7       29.86F HX  95           
SCAPPOOSE, OR  PTSUNNY   97  51  21 N8        29.86S HX  94           
PORTLAND, OR   MOSUNNY   99  49  18 NW8       29.86F HX  96           
$$
 
WAZ021-516-517-160200-
WASHINGTON COAST
  
CITY           SKY/WX    TMP DP  RH WIND       PRES   REMARKS
FORKS          SUNNY     78  50  37 NW13      29.98S                  
HOQUIAM        SUNNY     69  59  70 SW16      29.96F                  
ASTORIA, OR    SUNNY     72  58  61 W10       29.98R                  
$$
 
WAZ019-023-024-040-567>569-160200-
CASCADE MOUNTAINS AND COLUMBIA GORGE
  
CITY           SKY/WX    TMP DP  RH WIND       PRES   REMARKS
STAMPEDE PASS  NOT AVBL                                               
TROUTDALE, OR  MOSUNNY   98  48  18 NW5       29.86S HX  94           
HOOD RIVER, OR MOCLDY    95  43  16 CALM      29.87S HX  91           
THE DALLES, OR PTSUNNY  103  35   9 CALM      29.83F HX  97           
$$

WAZ026-027-041>044-520-521-160200-
EAST SLOPES
  
CITY           SKY/WX    TMP DP  RH WIND       PRES   REMARKS
OMAK           SUNNY     95  36  12 S6        29.92F HX  90           
WENATCHEE      SUNNY     94  41  16 E8        29.91F HX  90           
ELLENSBURG     SUNNY     98  33  10 E7        29.94F HX  92           
YAKIMA         MOSUNNY   97  39  13 E5        29.91F HX  92           
SUNNYSIDE ARPT PTCLDY    92  56  29 E6        29.89F HX  90           
YAKIMA TC        N/A     97  31  10 CALM      29.91S HX  91           
$$

WAZ028-034-035-160200-
COLUMBIA BASIN
  
CITY           SKY/WX    TMP DP  RH WIND       PRES   REMARKS
EPHRATA        SUNNY     96  28   9 S8        29.93F HX  90           
MOSES LAKE     SUNNY     96  27   8 VRB5      29.93F HX  90           
PASCO          PTSUNNY   97  47  18 N5        29.88F HX  93           
RICHLAND ARPT  MOCLDY   100  34  10 NE6       29.87F HX  94           
HERMISTON, OR  PTSUNNY  100  30   8 NE6       29.87F HX  94           
$$

WAZ036>038-160200-
NORTHEAST WASHINGTON
  
CITY           SKY/WX    TMP DP  RH WIND       PRES   REMARKS
SPOKANE GEIGER MOSUNNY   91  25   9 N7        30.01F                  
SPOKANE FELTS  MOSUNNY   93  25   8 E6        29.98F                  
FAIRCHILD AFB  SUNNY     89  31  13 NW3       30.02S                  
COEURDALENE,ID FAIR      89  29  11 CALM      30.01F                  
DEER PARK      SUNNY     92  27   9 VRB6      30.00F                  
$$

WAZ029>033-160200-
SOUTHEAST WASHINGTON
  
CITY           SKY/WX    TMP DP  RH WIND       PRES   REMARKS
PULLMAN        PTSUNNY   86  41  20 N5        30.04S                  
LEWISTON, ID     N/A     93  31  11 NE7       29.94F                  
WALLA WALLA    PTSUNNY   97  38  13 SW7       29.91F HX  92           
PENDLETON, OR  PTSUNNY   96  31  10 NE5       29.92F HX  90           
$$